Regional Weather Roundup
Issued by NWS Kansas City/Pleasant Hill, MO

Home | Current Version | Previous Version | Text Only | Print | Product List | Glossary On
Versions: 1 2 3 4 5 6 7 8 9 10 11 12 13 14 15 16 17 18 19 20 21 22 23 24 25 26 27 28
000
ASUS43 KEAX 170110
RWREAX

WEATHER ROUNDUP FOR EASTERN KANSAS AND NORTHWEST MISSOURI
NATIONAL WEATHER SERVICE KANSAS CITY/PLEASANT HILL MO
700 PM CST SAT DEC 16 2017

KSZ040-057-103>105-MOZ028-029-037-043-170200-
...KANSAS CITY METROPOLITAN AREA...

CITY           SKY/WX    TMP DP  RH WIND       PRES   REMARKS
K.C. INTL      CLOUDY    44  27  51 S10       29.94R
K.C. DOWNTOWN  CLOUDY    53  27  36 S9        29.95R
LEES SUMMIT    CLOUDY    50  26  39 S10       29.96R
OLATHE - IXD   CLOUDY    45  27  49 S7        29.96R
OLATHE - OJC   CLOUDY    44  27  51 S7        29.95R
LAWRENCE       CLOUDY    45  25  45 SE9       29.94R

$$

MOZ001>008-011>017-020>025-030>033-038>040-044>046-053-054-170200-
...NORTHERN AND CENTRAL MISSOURI...

CITY           SKY/WX    TMP DP  RH WIND       PRES   REMARKS
ST. JOSEPH     CLOUDY    36  25  64 CALM      29.93R
MOSBY          CLEAR     52  27  37 S5        29.96S
WARRENSBURG    CLOUDY    46  27  46 S7        29.99R
WHITEMAN AFB   CLOUDY    44  25  47 SW7       29.95R
CLINTON        CLOUDY    43  25  49 CALM      30.00S
SEDALIA        CLOUDY    50  28  42 SW7       30.01R
WARSAW         NOT AVBL
CHILLICOTHE      N/A     37  26  64 CALM      29.97R
KIRKSVILLE     CLEAR     38  28  67 S3        29.96R

$$

MOZ041-047>049-056>058-063>065-088>090-097-170200-
...EASTERN AND SOUTHERN MISSOURI...

CITY           SKY/WX    TMP DP  RH WIND       PRES   REMARKS
ST. LOUIS INTL CLOUDY    51  27  39 S5        30.03R
SPIRIT OF STL  CLOUDY    53  26  35 S6        30.03R
COLUMBIA       CLOUDY    50  25  37 SW12      30.01R
JEFFERSON CITY CLOUDY    53  23  31 CALM      30.02R
ROLLA          CLOUDY    49  26  41 S9        30.03R
OSAGE BEACH    CLOUDY    49  24  37 S7        30.03R
SPRINGFIELD    PTCLDY    47  24  40 S8        30.01S
BRANSON        MOCLDY    46  23  39 SE8       30.05S
JOPLIN         PTCLDY    51  27  39 S8        29.99S
WEST PLAINS    CLOUDY    47  27  45 S7        30.08R

$$

IAZ060-094-KSZ022-034>040-054-083-096-NEZ052-066-093-170200-
...KANSAS...SOUTHEAST NEBRASKA AND IOWA...

CITY           SKY/WX    TMP DP  RH WIND       PRES   REMARKS
TOPEKA         CLOUDY    50  27  40 S5        29.92R
MANHATTAN      CLOUDY    48  24  39 CALM      29.89R
EMPORIA        CLOUDY    47  24  40 SE9       29.90S
CHANUTE        CLOUDY    50  27  40 SE8       29.95R
WICHITA        CLOUDY    53  27  36 S13       29.87R
OMAHA          CLEAR     34  23  64 N6        29.95R WCI  29
LINCOLN        CLEAR     38  24  57 NE5       29.95R WCI  34
FALLS CITY     CLOUDY    44  25  47 E5        29.90S
LAMONI         CLEAR     44  26  49 SW3       29.94R
DES MOINES     CLEAR     43  26  51 CALM      29.94R

$$





USA.gov is the U.S. government's official web portal to all federal, state and local government web resources and services.